| time (UTC) | temp F | wind direction | speed MPH | gust MPH | rain 1hr in | rain 24hr in | rain mn in | humidity % | barometer mb |
| 20260504044544 | 50 | 173 | 2.0 | 3.0 | 0.00 | 0.00 | 0.00 | 70 | 1017.2 |
| 20260504043044 | 51 | 173 | 1.0 | 3.0 | 0.00 | 0.00 | 0.00 | 69 | 1017.1 |
| 20260504041541 | 51 | 173 | 1.0 | 3.0 | 0.00 | 0.00 | 0.00 | 68 | 1017.0 |
| 20260504040041 | 51 | 0 | 1.0 | 2.0 | 0.00 | 0.00 | 0.00 | 68 | 1016.8 |
| 20260504034535 | 51 | 0 | 0.0 | 2.0 | 0.00 | 0.00 | 0.00 | 68 | 1017.1 |
| 20260504033044 | 52 | 0 | 0.0 | 0.0 | 0.00 | 0.00 | 0.00 | 66 | 1017.0 |
| 20260504031534 | 53 | 0 | 0.0 | 2.0 | 0.00 | 0.00 | 0.00 | 65 | 1017.1 |
| 20260504030106 | 54 | 192 | 1.0 | 4.0 | 0.00 | 0.00 | 0.00 | 64 | 1017.2 |
| 20260504024544 | 55 | 0 | 0.0 | 0.0 | 0.00 | 0.00 | 0.00 | 61 | 1017.2 |
| 20260504023039 | 55 | 0 | 0.0 | 2.0 | 0.00 | 0.00 | 0.00 | 60 | 1017.1 |
| 20260504021547 | 55 | 0 | 0.0 | 4.0 | 0.00 | 0.00 | 0.00 | 59 | 1017.0 |
| 20260504020047 | 56 | 188 | 0.0 | 3.0 | 0.00 | 0.00 | 0.00 | 60 | 1016.7 |
| 20260504014545 | 57 | 187 | 1.0 | 3.0 | 0.00 | 0.00 | 0.00 | 59 | 1016.5 |
| 20260504013041 | 57 | 0 | 0.0 | 2.0 | 0.00 | 0.00 | 0.00 | 55 | 1016.2 |
| 20260504011539 | 58 | 0 | 0.0 | 3.0 | 0.00 | 0.00 | 0.00 | 54 | 1016.1 |
| 20260504010047 | 59 | 0 | 0.0 | 2.0 | 0.00 | 0.00 | 0.00 | 53 | 1016.0 |
| 20260504004546 | 60 | 0 | 0.0 | 2.0 | 0.00 | 0.00 | 0.00 | 52 | 1015.8 |
| 20260504003046 | 62 | 187 | 1.0 | 4.0 | 0.00 | 0.00 | 0.00 | 50 | 1015.7 |
| 20260504001543 | 64 | 187 | 0.0 | 2.0 | 0.00 | 0.00 | 0.00 | 47 | 1015.6 |
| 20260503234546 | 66 | 194 | 2.0 | 5.0 | 0.00 | 0.00 | 0.00 | 42 | 1015.5 |
| 20260503233057 | 67 | 207 | 3.0 | 6.0 | 0.00 | 0.00 | 0.00 | 40 | 1015.4 |
| 20260503231545 | 68 | 184 | 2.0 | 10.0 | 0.00 | 0.00 | 0.00 | 39 | 1015.3 |
| 20260503230044 | 69 | 271 | 2.0 | 10.0 | 0.00 | 0.00 | 0.00 | 37 | 1015.3 |
| 20260503224540 | 70 | 257 | 1.0 | 8.0 | 0.00 | 0.00 | 0.00 | 36 | 1015.3 |
| 20260503223040 | 71 | 121 | 4.0 | 10.0 | 0.00 | 0.00 | 0.00 | 32 | 1015.4 |
| 20260503221540 | 71 | 182 | 2.0 | 6.0 | 0.00 | 0.00 | 0.00 | 28 | 1015.3 |
| 20260503220048 | 70 | 142 | 1.0 | 5.0 | 0.00 | 0.00 | 0.00 | 29 | 1015.4 |
| 20260503214544 | 70 | 143 | 3.0 | 5.0 | 0.00 | 0.00 | 0.00 | 28 | 1015.5 |
| 20260503213043 | 69 | 279 | 0.0 | 6.0 | 0.00 | 0.00 | 0.00 | 31 | 1015.7 |
| 20260503211539 | 69 | 136 | 4.0 | 11.0 | 0.00 | 0.00 | 0.00 | 29 | 1015.9 |
| 20260503210047 | 68 | 154 | 4.0 | 10.0 | 0.00 | 0.00 | 0.00 | 30 | 1016.2 |
| 20260503204545 | 69 | 252 | 5.0 | 9.0 | 0.00 | 0.00 | 0.00 | 30 | 1016.2 |
| 20260503203045 | 68 | 175 | 3.0 | 8.0 | 0.00 | 0.00 | 0.00 | 33 | 1016.6 |
| 20260503201556 | 68 | 112 | 2.0 | 9.0 | 0.00 | 0.00 | 0.00 | 37 | 1016.8 |
| 20260503200040 | 68 | 244 | 4.0 | 14.0 | 0.00 | 0.00 | 0.00 | 34 | 1017.0 |
| 20260503194536 | 68 | 174 | 4.0 | 11.0 | 0.00 | 0.00 | 0.00 | 36 | 1017.3 |
| 20260503193046 | 67 | 188 | 3.0 | 11.0 | 0.00 | 0.00 | 0.00 | 38 | 1017.4 |
| 20260503191544 | 66 | 340 | 3.0 | 9.0 | 0.00 | 0.00 | 0.00 | 37 | 1017.6 |
| 20260503190044 | 66 | 225 | 4.0 | 14.0 | 0.00 | 0.00 | 0.00 | 35 | 1017.9 |
| 20260503184558 | 66 | 280 | 2.0 | 8.0 | 0.00 | 0.00 | 0.00 | 35 | 1018.0 |
| 20260503183050 | 65 | 164 | 3.0 | 8.0 | 0.00 | 0.00 | 0.00 | 35 | 1018.2 |
| 20260503181550 | 64 | 233 | 5.0 | 11.0 | 0.00 | 0.00 | 0.00 | 36 | 1018.5 |
| 20260503180044 | 64 | 189 | 2.0 | 10.0 | 0.00 | 0.00 | 0.00 | 38 | 1018.6 |
| 20260503174542 | 64 | 148 | 4.0 | 9.0 | 0.00 | 0.00 | 0.00 | 35 | 1018.8 |
| 20260503173039 | 63 | 153 | 2.0 | 8.0 | 0.00 | 0.00 | 0.00 | 35 | 1018.9 |
| 20260503171607 | 62 | 205 | 3.0 | 9.0 | 0.00 | 0.00 | 0.00 | 37 | 1019.2 |
| 20260503081541 | 41 | 286 | 1.0 | 2.0 | 0.00 | 0.00 | 0.00 | 78 | 1017.5 |
| 20260503071558 | 41 | 286 | 0.0 | 3.0 | 0.00 | 0.00 | 0.00 | 78 | 1017.2 |